TimeMDT,TemperatureF,Dew PointF,Humidity,Sea Level PressureIn,VisibilityMPH,Wind Direction,Wind SpeedMPH,Gust SpeedMPH,PrecipitationIn,Events,Conditions,WindDirDegrees,DateUTC
12:15 AM,38.7,17.6,43,30.38,10.0,West,4.6,-,N/A,,Clear,260,2012-10-31 06:15:00
12:35 AM,37.4,17.8,45,30.38,10.0,West,5.8,-,N/A,,Clear,260,2012-10-31 06:35:00
12:55 AM,36.1,16.7,45,30.38,10.0,West,5.8,-,N/A,,Clear,260,2012-10-31 06:55:00
1:15 AM,35.6,16.7,46,30.38,10.0,Calm,Calm,-,N/A,,Clear,0,2012-10-31 07:15:00
1:35 AM,37.2,18.1,46,30.38,10.0,WSW,6.9,-,N/A,,Clear,240,2012-10-31 07:35:00
1:55 AM,36.3,17.4,46,30.38,10.0,West,4.6,-,N/A,,Clear,260,2012-10-31 07:55:00
2:15 AM,35.6,17.6,48,30.38,10.0,West,3.5,-,N/A,,Clear,270,2012-10-31 08:15:00
2:35 AM,36.3,17.8,47,30.38,10.0,WNW,4.6,-,N/A,,Clear,290,2012-10-31 08:35:00
2:55 AM,37.2,18.3,46,30.38,10.0,Calm,Calm,-,N/A,,Clear,0,2012-10-31 08:55:00
3:15 AM,33.8,17.6,52,30.37,10.0,Calm,Calm,-,N/A,,Clear,0,2012-10-31 09:15:00
3:55 AM,33.1,18.3,55,30.37,10.0,West,5.8,-,N/A,,Clear,260,2012-10-31 09:55:00
4:15 AM,32.2,17.8,55,30.38,10.0,Calm,Calm,-,N/A,,Clear,0,2012-10-31 10:15:00
4:35 AM,32.7,18.1,55,30.38,10.0,WSW,5.8,-,N/A,,Clear,240,2012-10-31 10:35:00
4:55 AM,32.0,17.8,56,30.38,10.0,Calm,Calm,-,N/A,,Clear,0,2012-10-31 10:55:00
5:15 AM,31.6,18.0,57,30.38,10.0,Calm,Calm,-,N/A,,Clear,0,2012-10-31 11:15:00
5:35 AM,32.0,18.1,57,30.39,10.0,NNW,3.5,-,N/A,,Clear,340,2012-10-31 11:35:00
5:55 AM,32.0,18.0,56,30.40,10.0,Calm,Calm,-,N/A,,Clear,0,2012-10-31 11:55:00
6:15 AM,31.8,18.0,57,30.40,10.0,Calm,Calm,-,N/A,,Clear,0,2012-10-31 12:15:00
6:35 AM,30.6,18.1,60,30.40,10.0,West,3.5,-,N/A,,Clear,270,2012-10-31 12:35:00
6:55 AM,30.0,18.3,62,30.40,10.0,Calm,Calm,-,N/A,,Clear,0,2012-10-31 12:55:00
7:15 AM,30.9,18.3,60,30.40,10.0,Calm,Calm,-,N/A,,Clear,0,2012-10-31 13:15:00
7:35 AM,30.4,18.5,61,30.41,10.0,Calm,Calm,-,N/A,,Clear,0,2012-10-31 13:35:00
7:55 AM,31.3,18.7,60,30.42,10.0,West,4.6,-,N/A,,Clear,260,2012-10-31 13:55:00
8:15 AM,33.6,19.2,56,30.42,10.0,WSW,4.6,-,N/A,,Clear,250,2012-10-31 14:15:00
8:35 AM,36.5,19.9,51,30.43,10.0,Calm,Calm,-,N/A,,Clear,0,2012-10-31 14:35:00
8:55 AM,39.7,20.3,46,30.42,10.0,West,3.5,-,N/A,,Clear,270,2012-10-31 14:55:00
9:15 AM,38.3,20.1,48,30.42,10.0,NNW,3.5,-,N/A,,Clear,330,2012-10-31 15:15:00
9:35 AM,40.1,20.7,46,30.42,10.0,NNW,3.5,-,N/A,,Clear,340,2012-10-31 15:35:00
9:55 AM,41.9,20.5,42,30.42,10.0,Calm,Calm,-,N/A,,Clear,0,2012-10-31 15:55:00
10:15 AM,45.9,21.0,37,30.42,10.0,Calm,Calm,-,N/A,,Clear,0,2012-10-31 16:15:00
10:35 AM,46.6,20.7,36,30.41,10.0,Calm,Calm,-,N/A,,Clear,0,2012-10-31 16:35:00
10:55 AM,50.9,20.7,30,30.40,10.0,Calm,Calm,-,N/A,,Clear,0,2012-10-31 16:55:00
11:15 AM,52.3,20.3,28,30.40,10.0,Calm,Calm,-,N/A,,Clear,0,2012-10-31 17:15:00
11:55 AM,57.0,19.0,23,30.38,10.0,Calm,Calm,-,N/A,,Clear,0,2012-10-31 17:55:00
12:15 PM,59.0,19.0,21,30.37,10.0,NNE,3.5,-,N/A,,Clear,20,2012-10-31 18:15:00
12:35 PM,59.5,18.3,20,30.35,10.0,Calm,Calm,-,N/A,,Clear,0,2012-10-31 18:35:00
12:55 PM,61.3,17.8,19,30.35,10.0,Calm,Calm,-,N/A,,Clear,0,2012-10-31 18:55:00
1:15 PM,61.7,13.6,15,30.33,10.0,Calm,Calm,-,N/A,,Clear,0,2012-10-31 19:15:00
1:35 PM,64.2,11.1,13,30.32,10.0,Calm,Calm,-,N/A,,Clear,0,2012-10-31 19:35:00
1:55 PM,64.4,10.4,12,30.31,10.0,Calm,Calm,-,N/A,,Clear,0,2012-10-31 19:55:00
2:15 PM,66.0,10.2,11,30.30,10.0,NNE,4.6,-,N/A,,Clear,20,2012-10-31 20:15:00
2:35 PM,66.6,7.0,10,30.29,10.0,Calm,Calm,-,N/A,,Clear,0,2012-10-31 20:35:00
2:55 PM,67.8,7.5,9,30.28,10.0,East,3.5,-,N/A,,Clear,100,2012-10-31 20:55:00
3:15 PM,66.4,7.2,10,30.28,10.0,NNW,3.5,-,N/A,,Clear,340,2012-10-31 21:15:00
3:35 PM,66.7,7.7,10,30.28,10.0,North,3.5,-,N/A,,Clear,10,2012-10-31 21:35:00
3:55 PM,67.1,8.2,10,30.27,10.0,East,3.5,-,N/A,,Clear,80,2012-10-31 21:55:00
4:15 PM,66.7,8.2,10,30.27,10.0,Calm,Calm,-,N/A,,Clear,0,2012-10-31 22:15:00
4:35 PM,66.7,7.9,10,30.27,10.0,Calm,Calm,-,N/A,,Clear,0,2012-10-31 22:35:00
4:55 PM,66.0,10.9,12,30.28,10.0,South,8.1,-,N/A,,Clear,180,2012-10-31 22:55:00
5:15 PM,63.9,10.8,13,30.29,10.0,South,6.9,-,N/A,,Clear,190,2012-10-31 23:15:00
5:35 PM,62.2,10.6,13,30.29,10.0,SSW,5.8,-,N/A,,Clear,210,2012-10-31 23:35:00
5:55 PM,59.0,11.8,16,30.29,10.0,SW,4.6,-,N/A,,Clear,220,2012-10-31 23:55:00
6:15 PM,56.8,11.7,17,30.29,10.0,SSW,4.6,-,N/A,,Clear,210,2012-11-01 00:15:00
6:35 PM,57.6,11.3,16,30.30,10.0,Calm,Calm,-,N/A,,Clear,0,2012-11-01 00:35:00
6:55 PM,55.2,11.3,17,30.31,10.0,West,4.6,-,N/A,,Clear,280,2012-11-01 00:55:00
7:15 PM,53.4,12.0,19,30.31,10.0,SW,4.6,-,N/A,,Clear,230,2012-11-01 01:15:00
7:35 PM,54.7,12.2,19,30.32,10.0,SW,3.5,-,N/A,,Clear,220,2012-11-01 01:35:00
7:55 PM,50.4,12.9,22,30.32,10.0,SW,8.1,-,N/A,,Clear,230,2012-11-01 01:55:00
8:15 PM,48.9,12.2,23,30.33,10.0,WSW,10.4,-,N/A,,Clear,240,2012-11-01 02:15:00
8:35 PM,47.7,11.8,24,30.33,10.0,WSW,10.4,-,N/A,,Clear,240,2012-11-01 02:35:00
8:55 PM,48.2,11.8,23,30.33,10.0,WSW,4.6,-,N/A,,Clear,240,2012-11-01 02:55:00
9:15 PM,47.1,12.0,24,30.34,10.0,WSW,9.2,17.3,N/A,,Clear,240,2012-11-01 03:15:00
9:35 PM,46.9,11.7,24,30.34,10.0,WSW,10.4,-,N/A,,Clear,250,2012-11-01 03:35:00
9:55 PM,45.3,11.3,25,30.35,10.0,WSW,8.1,-,N/A,,Clear,240,2012-11-01 03:55:00
10:15 PM,45.0,11.8,26,30.35,10.0,WSW,9.2,-,N/A,,Clear,250,2012-11-01 04:15:00
10:35 PM,44.1,12.9,28,30.35,10.0,West,10.4,-,N/A,,Clear,270,2012-11-01 04:35:00
10:55 PM,43.7,13.1,29,30.36,10.0,West,6.9,-,N/A,,Clear,270,2012-11-01 04:55:00
11:15 PM,38.8,12.4,34,30.37,10.0,WSW,6.9,-,N/A,,Clear,250,2012-11-01 05:15:00
11:35 PM,38.7,12.7,35,30.37,10.0,WSW,8.1,-,N/A,,Clear,240,2012-11-01 05:35:00
11:55 PM,37.6,13.1,37,30.37,10.0,West,3.5,-,N/A,,Clear,270,2012-11-01 05:55:00